Regional Weather Roundup
Issued by NWS Bismarck, ND

Home | Current Version | Previous Version | Text Only | Print | Product List | Glossary On
Versions: 1 2 3 4 5 6 7 8 9 10 11 12 13 14 15 16 17 18 19 20 21 22 23 24 25 26 27 28 29 30 31 32 33 34 35 36 37 38 39 40 41 42 43 44 45 46 47 48 49 50
000
ASUS43 KBIS 231002
RWRBIS

NWR BROADCAST TEXT
NATIONAL WEATHER SERVICE BISMARCK ND
500 AM CDT SUN APR 23 2017

NOTE: "FAIR" INDICATES FEW OR NO CLOUDS BELOW 12,000 FEET WITH NO
SIGNIFICANT WEATHER AND/OR OBSTRUCTIONS TO VISIBILITY.


CITY           SKY/WX    TMP DP  RH WIND       PRES   REMARKS
WILLISTON      CLOUDY    35  27  72 E20G26    30.09S
MINOT          LGT SNOW  30  22  72 E21G29    30.15F WCI  17
MINOT AFB      CLOUDY    30  26  84 E18       30.15S WCI  18
BISMARCK       CLOUDY    35  31  85 E18G26    30.08F
DICKINSON      CLOUDY    32  30  92 E20G25    29.98F
GARRISON         N/A     31  28  89 E20G26    30.11S WCI  19
HETTINGER ARPT CLOUDY    35  33  92 E18G29    29.96F
JAMESTOWN      MIX PCPN  30  26  85 NE16      30.14F WCI  19
HAZEN          CLOUDY    34  30  86 E15G21    30.11S
LINTON           N/A     34  34 100 E24G31    30.06F
MANDAN         CLOUDY    34  34 100 E20G31    30.06F
STANLEY        CLOUDY    28  28 100 E18G25    30.13F WCI  16
TIOGA          CLOUDY    28  28 100 E23G30    30.11S WCI  14
WATFORD CITY   LGT RAIN  32  30  93 E23       30.04F WCI  19
$$

CITY           SKY/WX    TMP DP  RH WIND       PRES   REMARKS
GRAND FORKS    CLOUDY    32  22  66 NE14      30.24S
GRAND FORKS AF CLOUDY    30  19  63 NE13      30.24R WCI  20
DEVILS LAKE    CLOUDY    28  18  66 NE18G26   30.20F WCI  15
FARGO          FLURRIES  34  32  92 N13       30.16F
CAVALIER       FAIR      28  19  69 NE8       30.28S
GRAFTON        FAIR      28  19  69 N14       30.28S WCI  17
GWINNER        CLOUDY    34  32  93 MISG      30.13S
LANGDON        CLOUDY    27  19  74 NE17G23   30.22F WCI  14
ROLLA          CLOUDY    27  12  54 E15G21    30.22S WCI  15
$$

CITY           SKY/WX    TMP DP  RH WIND       PRES   REMARKS
ABERDEEN       CLOUDY    36  31  82 NE20G28   30.08F
MOBRIDGE       FAIR      36  29  75 E25G38    29.98F
BUFFALO          N/A     41  40  96 NE22      29.83F
RAPID CITY     FAIR      45  32  60 S10       29.93F
GLASGOW        CLOUDY    37  34  89 E24       29.92F
SIDNEY         CLOUDY    35  30  82 E17       30.03F
WOLF POINT     CLOUDY    40  33  76 E22G29    29.99F
GLENDIVE       CLOUDY    37  33  85 E17       29.97F
MILES CITY     FAIR      43  40  89 NE16      29.88S
BAKER          CLOUDY    37  35  92 E24       29.91F
$$

CITY           SKY/WX    TMP DP  RH WIND       PRES   REMARKS
BILLINGS       CLOUDY    46  38  73 S3        29.83F
GREAT FALLS    FAIR      40  37  89 NW7       29.82F
$$





USA.gov is the U.S. government's official web portal to all federal, state and local government web resources and services.